Location: Alphen
(52.1351°N, 4.6549°E)
Time: 02:03:32
(UTC+00:00)

Cosmos 1570 Rocket - Pass Details

Date: 27 January 2021
Orbit: 762 x 789 km, 74.1° (Epoch: 26 February)

Event Time Altitude Azimuth Distance (km) Brightness Sun altitude
Exits shadow 04:57:36 40° 214° (SW) 1,114 4.5 -23.0°
Maximum altitude 04:59:31 80° 295° (WNW) 785 3.8 -22.7°
Drops below altitude 10° 05:04:48 10° 24° (NNE) 2,325 6.7 -21.9°
Sets 05:07:12 0° 25° (NNE) 3,260 7.6 -21.6°
